#datetime,building,power
2022-07-26T00:00:00,mfh,22.43
2022-07-26T00:01:00,mfh,22.39
2022-07-26T00:02:00,mfh,21.80
2022-07-26T00:03:00,mfh,21.81
2022-07-26T00:04:00,mfh,21.72
2022-07-26T00:05:00,mfh,21.82
2022-07-26T00:06:00,mfh,21.60
2022-07-26T00:07:00,mfh,22.21
2022-07-26T00:08:00,mfh,22.23
2022-07-26T00:09:00,mfh,22.21
2022-07-26T00:10:00,mfh,21.61
2022-07-26T00:11:00,mfh,21.61
2022-07-26T00:12:00,mfh,21.54
2022-07-26T00:13:00,mfh,21.60
2022-07-26T00:14:00,mfh,21.50
2022-07-26T00:15:00,mfh,22.12
2022-07-26T00:16:00,mfh,22.14
2022-07-26T00:17:00,mfh,22.17
2022-07-26T00:18:00,mfh,22.08
2022-07-26T00:19:00,mfh,21.66
2022-07-26T00:20:00,mfh,21.80
2022-07-26T00:21:00,mfh,21.91
2022-07-26T00:22:00,mfh,21.89
2022-07-26T00:23:00,mfh,22.52
2022-07-26T00:24:00,mfh,22.51
2022-07-26T00:25:00,mfh,22.52
2022-07-26T00:26:00,mfh,22.67
2022-07-26T00:27:00,mfh,21.97
2022-07-26T00:28:00,mfh,21.98
2022-07-26T00:29:00,mfh,22.00
2022-07-26T00:30:00,mfh,21.95
2022-07-26T00:31:00,mfh,22.66
2022-07-26T00:32:00,mfh,22.76
2022-07-26T00:33:00,mfh,22.91
2022-07-26T00:34:00,mfh,22.95
2022-07-26T00:35:00,mfh,22.44
2022-07-26T00:36:00,mfh,22.17
2022-07-26T00:37:00,mfh,22.07
2022-07-26T00:38:00,mfh,22.05
2022-07-26T00:39:00,mfh,22.64
2022-07-26T00:40:00,mfh,22.65
2022-07-26T00:41:00,mfh,22.64
2022-07-26T00:42:00,mfh,22.75
2022-07-26T00:43:00,mfh,22.01
2022-07-26T00:44:00,mfh,22.01
2022-07-26T00:45:00,mfh,21.85
2022-07-26T00:46:00,mfh,21.86
2022-07-26T00:47:00,mfh,22.36
2022-07-26T00:48:00,mfh,22.37
2022-07-26T00:49:00,mfh,22.56
2022-07-26T00:50:00,mfh,22.55
2022-07-26T00:51:00,mfh,21.88
2022-07-26T00:52:00,mfh,22.59
2022-07-26T00:53:00,mfh,21.74
2022-07-26T00:54:00,mfh,21.73
2022-07-26T00:55:00,mfh,21.74
2022-07-26T00:56:00,mfh,22.37
2022-07-26T00:57:00,mfh,22.35
2022-07-26T00:58:00,mfh,22.32
2022-07-26T00:59:00,mfh,21.95
2022-07-26T01:00:00,mfh,21.91
2022-07-26T01:01:00,mfh,21.83
2022-07-26T01:02:00,mfh,21.84
2022-07-26T01:03:00,mfh,21.82
2022-07-26T01:04:00,mfh,22.24
2022-07-26T01:05:00,mfh,22.28
2022-07-26T01:06:00,mfh,22.32
2022-07-26T01:07:00,mfh,22.75
2022-07-26T01:08:00,mfh,22.29
2022-07-26T01:09:00,mfh,21.66
2022-07-26T01:10:00,mfh,21.65
2022-07-26T01:11:00,mfh,21.58
2022-07-26T01:12:00,mfh,22.20
2022-07-26T01:13:00,mfh,22.25
2022-07-26T01:14:00,mfh,22.25
2022-07-26T01:15:00,mfh,21.81
2022-07-26T01:16:00,mfh,21.71
2022-07-26T01:17:00,mfh,21.64
2022-07-26T01:18:00,mfh,22.32
2022-07-26T01:19:00,mfh,21.88
2022-07-26T01:20:00,mfh,22.44
2022-07-26T01:21:00,mfh,22.49
2022-07-26T01:22:00,mfh,22.48
2022-07-26T01:23:00,mfh,21.93
2022-07-26T01:24:00,mfh,22.04
2022-07-26T01:25:00,mfh,21.95
2022-07-26T01:26:00,mfh,22.05
2022-07-26T01:27:00,mfh,22.04
2022-07-26T01:28:00,mfh,22.66
2022-07-26T01:29:00,mfh,22.67
2022-07-26T01:30:00,mfh,22.76
2022-07-26T01:31:00,mfh,22.79
2022-07-26T01:32:00,mfh,22.63
2022-07-26T01:33:00,mfh,21.90
2022-07-26T01:34:00,mfh,21.83
2022-07-26T01:35:00,mfh,21.65
2022-07-26T01:36:00,mfh,22.28
2022-07-26T01:37:00,mfh,22.32
2022-07-26T01:38:00,mfh,22.13
2022-07-26T01:39:00,mfh,22.20
2022-07-26T01:40:00,mfh,21.58
2022-07-26T01:41:00,mfh,21.80
2022-07-26T01:42:00,mfh,22.64
2022-07-26T01:43:00,mfh,21.68
2022-07-26T01:44:00,mfh,22.30
2022-07-26T01:45:00,mfh,22.36
2022-07-26T01:46:00,mfh,22.37
2022-07-26T01:47:00,mfh,22.58
2022-07-26T01:48:00,mfh,21.94
2022-07-26T01:49:00,mfh,21.92
2022-07-26T01:50:00,mfh,21.94
2022-07-26T01:51:00,mfh,21.93
2022-07-26T01:52:00,mfh,22.51
2022-07-26T01:53:00,mfh,22.66
2022-07-26T01:54:00,mfh,22.63
2022-07-26T01:55:00,mfh,23.02
2022-07-26T01:56:00,mfh,22.03
2022-07-26T01:57:00,mfh,21.99
2022-07-26T01:58:00,mfh,22.00
2022-07-26T01:59:00,mfh,21.88
2022-07-26T02:00:00,mfh,21.87
2022-07-26T02:01:00,mfh,22.51
2022-07-26T02:02:00,mfh,22.39
2022-07-26T02:03:00,mfh,22.27
2022-07-26T02:04:00,mfh,22.40
2022-07-26T02:05:00,mfh,21.61
2022-07-26T02:06:00,mfh,21.60
2022-07-26T02:07:00,mfh,22.36
2022-07-26T02:08:00,mfh,21.54
2022-07-26T02:09:00,mfh,22.16
2022-07-26T02:10:00,mfh,22.21
2022-07-26T02:11:00,mfh,22.27
2022-07-26T02:12:00,mfh,22.27
2022-07-26T02:13:00,mfh,21.67
2022-07-26T02:14:00,mfh,21.69
2022-07-26T02:15:00,mfh,21.55
2022-07-26T02:16:00,mfh,21.66
2022-07-26T02:17:00,mfh,22.56
2022-07-26T02:18:00,mfh,23.59
2022-07-26T02:19:00,mfh,23.23
2022-07-26T02:20:00,mfh,23.38
2022-07-26T02:21:00,mfh,23.07
2022-07-26T02:22:00,mfh,21.95
2022-07-26T02:23:00,mfh,21.83
2022-07-26T02:24:00,mfh,21.73
2022-07-26T02:25:00,mfh,22.38
2022-07-26T02:26:00,mfh,22.71
2022-07-26T02:27:00,mfh,22.54
2022-07-26T02:28:00,mfh,22.60
2022-07-26T02:29:00,mfh,22.06
2022-07-26T02:30:00,mfh,22.04
2022-07-26T02:31:00,mfh,21.76
2022-07-26T02:32:00,mfh,21.74
2022-07-26T02:33:00,mfh,22.82
2022-07-26T02:34:00,mfh,22.38
2022-07-26T02:35:00,mfh,22.70
2022-07-26T02:36:00,mfh,22.46
2022-07-26T02:37:00,mfh,21.87
2022-07-26T02:38:00,mfh,21.86
2022-07-26T02:39:00,mfh,21.80
2022-07-26T02:40:00,mfh,21.78
2022-07-26T02:41:00,mfh,22.99
2022-07-26T02:42:00,mfh,23.23
2022-07-26T02:43:00,mfh,21.64
2022-07-26T02:44:00,mfh,21.64
2022-07-26T02:45:00,mfh,21.87
2022-07-26T02:46:00,mfh,22.04
2022-07-26T02:47:00,mfh,22.60
2022-07-26T02:48:00,mfh,23.10
2022-07-26T02:49:00,mfh,22.73
2022-07-26T02:50:00,mfh,22.08
2022-07-26T02:51:00,mfh,22.08
2022-07-26T02:52:00,mfh,22.06
2022-07-26T02:53:00,mfh,22.16
2022-07-26T02:54:00,mfh,22.14
2022-07-26T02:55:00,mfh,22.73
2022-07-26T02:56:00,mfh,22.71
2022-07-26T02:57:00,mfh,22.69
2022-07-26T02:58:00,mfh,22.72
2022-07-26T02:59:00,mfh,22.03
2022-07-26T03:00:00,mfh,21.81
2022-07-26T03:01:00,mfh,21.90
2022-07-26T03:02:00,mfh,21.90
2022-07-26T03:03:00,mfh,22.88
2022-07-26T03:04:00,mfh,22.45
2022-07-26T03:05:00,mfh,22.78
2022-07-26T03:06:00,mfh,22.74
2022-07-26T03:07:00,mfh,22.76
2022-07-26T03:08:00,mfh,22.12
2022-07-26T03:09:00,mfh,22.12
2022-07-26T03:10:00,mfh,22.08
2022-07-26T03:11:00,mfh,22.70
2022-07-26T03:12:00,mfh,22.57
2022-07-26T03:13:00,mfh,22.59
2022-07-26T03:14:00,mfh,22.64
2022-07-26T03:15:00,mfh,22.25
2022-07-26T03:16:00,mfh,22.16
2022-07-26T03:17:00,mfh,22.15
2022-07-26T03:18:00,mfh,22.21
2022-07-26T03:19:00,mfh,22.79
2022-07-26T03:20:00,mfh,22.79
2022-07-26T03:21:00,mfh,22.74
2022-07-26T03:22:00,mfh,22.65
2022-07-26T03:23:00,mfh,21.97
2022-07-26T03:24:00,mfh,21.89
2022-07-26T03:25:00,mfh,21.82
2022-07-26T03:26:00,mfh,21.91
2022-07-26T03:27:00,mfh,22.54
2022-07-26T03:28:00,mfh,22.44
2022-07-26T03:29:00,mfh,22.28
2022-07-26T03:30:00,mfh,22.48
2022-07-26T03:31:00,mfh,21.79
2022-07-26T03:32:00,mfh,21.79
2022-07-26T03:33:00,mfh,21.86
2022-07-26T03:34:00,mfh,22.42
2022-07-26T03:35:00,mfh,22.53
2022-07-26T03:36:00,mfh,22.51
2022-07-26T03:37:00,mfh,22.47
2022-07-26T03:38:00,mfh,22.54
2022-07-26T03:39:00,mfh,21.82
2022-07-26T03:40:00,mfh,21.82
2022-07-26T03:41:00,mfh,21.87
2022-07-26T03:42:00,mfh,21.79
2022-07-26T03:43:00,mfh,21.95
2022-07-26T03:44:00,mfh,23.09
2022-07-26T03:45:00,mfh,22.73
2022-07-26T03:46:00,mfh,22.76
2022-07-26T03:47:00,mfh,22.01
2022-07-26T03:48:00,mfh,21.99
2022-07-26T03:49:00,mfh,21.95
2022-07-26T03:50:00,mfh,21.92
2022-07-26T03:51:00,mfh,22.00
2022-07-26T03:52:00,mfh,22.52
2022-07-26T03:53:00,mfh,22.50
2022-07-26T03:54:00,mfh,22.53
2022-07-26T03:55:00,mfh,21.89
2022-07-26T03:56:00,mfh,21.87
2022-07-26T03:57:00,mfh,21.92
2022-07-26T03:58:00,mfh,21.71
2022-07-26T03:59:00,mfh,21.77
2022-07-26T04:00:00,mfh,22.34
2022-07-26T04:01:00,mfh,22.32
2022-07-26T04:02:00,mfh,22.33
2022-07-26T04:03:00,mfh,21.63
2022-07-26T04:04:00,mfh,21.62
2022-07-26T04:05:00,mfh,21.56
2022-07-26T04:06:00,mfh,21.54
2022-07-26T04:07:00,mfh,21.96
2022-07-26T04:08:00,mfh,22.42
2022-07-26T04:09:00,mfh,22.18
2022-07-26T04:10:00,mfh,22.20
2022-07-26T04:11:00,mfh,22.22
2022-07-26T04:12:00,mfh,22.12
2022-07-26T04:13:00,mfh,21.75
2022-07-26T04:14:00,mfh,21.74
2022-07-26T04:15:00,mfh,21.73
2022-07-26T04:16:00,mfh,23.99
2022-07-26T04:17:00,mfh,24.07
2022-07-26T04:18:00,mfh,24.18
2022-07-26T04:19:00,mfh,24.02
2022-07-26T04:20:00,mfh,23.33
2022-07-26T04:21:00,mfh,23.39
2022-07-26T04:22:00,mfh,23.34
2022-07-26T04:23:00,mfh,21.68
2022-07-26T04:24:00,mfh,23.02
2022-07-26T04:25:00,mfh,22.53
2022-07-26T04:26:00,mfh,22.52
2022-07-26T04:27:00,mfh,21.55
2022-07-26T04:28:00,mfh,21.54
2022-07-26T04:29:00,mfh,21.68
2022-07-26T04:30:00,mfh,23.11
2022-07-26T04:31:00,mfh,31.13
2022-07-26T04:32:00,mfh,32.71
2022-07-26T04:33:00,mfh,32.88
2022-07-26T04:34:00,mfh,33.40
2022-07-26T04:35:00,mfh,32.63
2022-07-26T04:36:00,mfh,32.60
2022-07-26T04:37:00,mfh,32.63
2022-07-26T04:38:00,mfh,32.55
2022-07-26T04:39:00,mfh,32.89
2022-07-26T04:40:00,mfh,33.18
2022-07-26T04:41:00,mfh,33.38
2022-07-26T04:42:00,mfh,33.47
2022-07-26T04:43:00,mfh,32.60
2022-07-26T04:44:00,mfh,32.51
2022-07-26T04:45:00,mfh,32.49
2022-07-26T04:46:00,mfh,32.40
2022-07-26T04:47:00,mfh,32.48
2022-07-26T04:48:00,mfh,32.97
2022-07-26T04:49:00,mfh,32.97
2022-07-26T04:50:00,mfh,33.09
2022-07-26T04:51:00,mfh,32.95
2022-07-26T04:52:00,mfh,32.93
2022-07-26T04:53:00,mfh,33.05
2022-07-26T04:54:00,mfh,33.02
2022-07-26T04:55:00,mfh,32.93
2022-07-26T04:56:00,mfh,32.53
2022-07-26T04:57:00,mfh,32.51
2022-07-26T04:58:00,mfh,32.65
2022-07-26T04:59:00,mfh,31.97
2022-07-26T05:00:00,mfh,31.88
2022-07-26T05:01:00,mfh,46.06
2022-07-26T05:02:00,mfh,47.22
2022-07-26T05:03:00,mfh,47.25
2022-07-26T05:04:00,mfh,47.82
2022-07-26T05:05:00,mfh,48.07
2022-07-26T05:06:00,mfh,48.02
2022-07-26T05:07:00,mfh,47.98
2022-07-26T05:08:00,mfh,47.53
2022-07-26T05:09:00,mfh,47.55
2022-07-26T05:10:00,mfh,48.09
2022-07-26T05:11:00,mfh,48.44
2022-07-26T05:12:00,mfh,48.48
2022-07-26T05:13:00,mfh,48.30
2022-07-26T05:14:00,mfh,48.60
2022-07-26T05:15:00,mfh,48.55
2022-07-26T05:16:00,mfh,47.69
2022-07-26T05:17:00,mfh,47.62
2022-07-26T05:18:00,mfh,47.44
2022-07-26T05:19:00,mfh,47.45
2022-07-26T05:20:00,mfh,49.16
2022-07-26T05:21:00,mfh,47.80
2022-07-26T05:22:00,mfh,47.84
2022-07-26T05:23:00,mfh,48.07
2022-07-26T05:24:00,mfh,47.28
2022-07-26T05:25:00,mfh,47.00
2022-07-26T05:26:00,mfh,47.03
2022-07-26T05:27:00,mfh,46.55
2022-07-26T05:28:00,mfh,48.15
2022-07-26T05:29:00,mfh,47.19
2022-07-26T05:30:00,mfh,47.18
2022-07-26T05:31:00,mfh,47.61
2022-07-26T05:32:00,mfh,46.61
2022-07-26T05:33:00,mfh,45.53
2022-07-26T05:34:00,mfh,45.83
2022-07-26T05:35:00,mfh,45.67
2022-07-26T05:36:00,mfh,46.52
2022-07-26T05:37:00,mfh,46.48
2022-07-26T05:38:00,mfh,46.64
2022-07-26T05:39:00,mfh,47.04
2022-07-26T05:40:00,mfh,46.34
2022-07-26T05:41:00,mfh,46.37
2022-07-26T05:42:00,mfh,46.36
2022-07-26T05:43:00,mfh,46.25
2022-07-26T05:44:00,mfh,46.95
2022-07-26T05:45:00,mfh,47.03
2022-07-26T05:46:00,mfh,47.08
2022-07-26T05:47:00,mfh,46.35
2022-07-26T05:48:00,mfh,46.36
2022-07-26T05:49:00,mfh,46.37
2022-07-26T05:50:00,mfh,46.40
2022-07-26T05:51:00,mfh,46.34
2022-07-26T05:52:00,mfh,46.83
2022-07-26T05:53:00,mfh,46.09
2022-07-26T05:54:00,mfh,46.49
2022-07-26T05:55:00,mfh,46.45
2022-07-26T05:56:00,mfh,46.28
2022-07-26T05:57:00,mfh,50.06
2022-07-26T05:58:00,mfh,50.16
2022-07-26T05:59:00,mfh,50.79
2022-07-26T06:00:00,mfh,50.63
2022-07-26T06:01:00,mfh,51.22
2022-07-26T06:02:00,mfh,51.40
2022-07-26T06:03:00,mfh,52.10
2022-07-26T06:04:00,mfh,50.29
2022-07-26T06:05:00,mfh,50.41
2022-07-26T06:06:00,mfh,50.46
2022-07-26T06:07:00,mfh,51.12
2022-07-26T06:08:00,mfh,51.08
2022-07-26T06:09:00,mfh,51.09
2022-07-26T06:10:00,mfh,51.15
2022-07-26T06:11:00,mfh,51.09
2022-07-26T06:12:00,mfh,51.35
2022-07-26T06:13:00,mfh,50.65
2022-07-26T06:14:00,mfh,50.64
2022-07-26T06:15:00,mfh,50.69
2022-07-26T06:16:00,mfh,51.03
2022-07-26T06:17:00,mfh,51.67
2022-07-26T06:18:00,mfh,72.76
2022-07-26T06:19:00,mfh,74.23
2022-07-26T06:20:00,mfh,74.00
2022-07-26T06:21:00,mfh,72.94
2022-07-26T06:22:00,mfh,72.36
2022-07-26T06:23:00,mfh,82.89
2022-07-26T06:24:00,mfh,82.00
2022-07-26T06:25:00,mfh,82.02
2022-07-26T06:26:00,mfh,82.02
2022-07-26T06:27:00,mfh,76.15
2022-07-26T06:28:00,mfh,76.22
2022-07-26T06:29:00,mfh,75.96
2022-07-26T06:30:00,mfh,74.69
2022-07-26T06:31:00,mfh,74.05
2022-07-26T06:32:00,mfh,75.46
2022-07-26T06:33:00,mfh,68.84
2022-07-26T06:34:00,mfh,68.54
2022-07-26T06:35:00,mfh,69.09
2022-07-26T06:36:00,mfh,61.68
2022-07-26T06:37:00,mfh,61.69
2022-07-26T06:38:00,mfh,60.91
2022-07-26T06:39:00,mfh,61.07
2022-07-26T06:40:00,mfh,61.12
2022-07-26T06:41:00,mfh,61.56
2022-07-26T06:42:00,mfh,60.88
2022-07-26T06:43:00,mfh,60.84
2022-07-26T06:44:00,mfh,61.49
2022-07-26T06:45:00,mfh,61.08
2022-07-26T06:46:00,mfh,61.87
2022-07-26T06:47:00,mfh,60.93
2022-07-26T06:48:00,mfh,60.01
2022-07-26T06:49:00,mfh,60.05
2022-07-26T06:50:00,mfh,60.19
2022-07-26T06:51:00,mfh,60.94
2022-07-26T06:52:00,mfh,59.49
2022-07-26T06:53:00,mfh,59.28
2022-07-26T06:54:00,mfh,59.31
2022-07-26T06:55:00,mfh,58.52
2022-07-26T06:56:00,mfh,58.91
2022-07-26T06:57:00,mfh,58.81
2022-07-26T06:58:00,mfh,59.65
2022-07-26T06:59:00,mfh,59.83
2022-07-26T07:00:00,mfh,59.73
2022-07-26T07:01:00,mfh,59.66
2022-07-26T07:02:00,mfh,60.02
2022-07-26T07:03:00,mfh,59.13
2022-07-26T07:04:00,mfh,60.10
2022-07-26T07:05:00,mfh,58.92
2022-07-26T07:06:00,mfh,59.74
2022-07-26T07:07:00,mfh,59.70
2022-07-26T07:08:00,mfh,59.80
2022-07-26T07:09:00,mfh,59.67
2022-07-26T07:10:00,mfh,59.26
2022-07-26T07:11:00,mfh,58.64
2022-07-26T07:12:00,mfh,58.62
2022-07-26T07:13:00,mfh,58.60
2022-07-26T07:14:00,mfh,59.99
2022-07-26T07:15:00,mfh,60.67
2022-07-26T07:16:00,mfh,59.43
2022-07-26T07:17:00,mfh,59.12
2022-07-26T07:18:00,mfh,59.38
2022-07-26T07:19:00,mfh,59.72
2022-07-26T07:20:00,mfh,59.69
2022-07-26T07:21:00,mfh,59.69
2022-07-26T07:22:00,mfh,59.70
2022-07-26T07:23:00,mfh,59.76
2022-07-26T07:24:00,mfh,59.06
2022-07-26T07:25:00,mfh,59.18
2022-07-26T07:26:00,mfh,59.06
2022-07-26T07:27:00,mfh,60.04
2022-07-26T07:28:00,mfh,59.61
2022-07-26T07:29:00,mfh,59.63
2022-07-26T07:30:00,mfh,59.96
2022-07-26T07:31:00,mfh,59.86
2022-07-26T07:32:00,mfh,59.86
2022-07-26T07:33:00,mfh,59.47
2022-07-26T07:34:00,mfh,60.17
2022-07-26T07:35:00,mfh,60.33
2022-07-26T07:36:00,mfh,60.80
2022-07-26T07:37:00,mfh,60.83
2022-07-26T07:38:00,mfh,60.68
2022-07-26T07:39:00,mfh,59.93
2022-07-26T07:40:00,mfh,60.06
2022-07-26T07:41:00,mfh,60.04
2022-07-26T07:42:00,mfh,59.49
2022-07-26T07:43:00,mfh,59.34
2022-07-26T07:44:00,mfh,59.02
2022-07-26T07:45:00,mfh,59.76
2022-07-26T07:46:00,mfh,59.72
2022-07-26T07:47:00,mfh,59.73
2022-07-26T07:48:00,mfh,59.84
2022-07-26T07:49:00,mfh,59.80
2022-07-26T07:50:00,mfh,59.17
2022-07-26T07:51:00,mfh,59.15
2022-07-26T07:52:00,mfh,59.08
2022-07-26T07:53:00,mfh,59.67
2022-07-26T07:54:00,mfh,60.18
2022-07-26T07:55:00,mfh,60.26
2022-07-26T07:56:00,mfh,59.73
2022-07-26T07:57:00,mfh,59.93
2022-07-26T07:58:00,mfh,59.19
2022-07-26T07:59:00,mfh,59.31
2022-07-26T08:00:00,mfh,59.30
2022-07-26T08:01:00,mfh,59.97
2022-07-26T08:02:00,mfh,59.99
2022-07-26T08:03:00,mfh,59.92
2022-07-26T08:04:00,mfh,60.02
2022-07-26T08:05:00,mfh,61.01
2022-07-26T08:06:00,mfh,59.47
2022-07-26T08:07:00,mfh,59.40
2022-07-26T08:08:00,mfh,59.39
2022-07-26T08:09:00,mfh,60.02
2022-07-26T08:10:00,mfh,60.01
2022-07-26T08:11:00,mfh,59.80
2022-07-26T08:12:00,mfh,59.84
2022-07-26T08:13:00,mfh,60.17
2022-07-26T08:14:00,mfh,61.08
2022-07-26T08:15:00,mfh,59.97
2022-07-26T08:16:00,mfh,59.48
2022-07-26T08:17:00,mfh,59.26
2022-07-26T08:18:00,mfh,59.93
2022-07-26T08:19:00,mfh,59.75
2022-07-26T08:20:00,mfh,59.70
2022-07-26T08:21:00,mfh,60.11
2022-07-26T08:22:00,mfh,60.13
2022-07-26T08:23:00,mfh,59.50
2022-07-26T08:24:00,mfh,59.48
2022-07-26T08:25:00,mfh,59.78
2022-07-26T08:26:00,mfh,60.24
2022-07-26T08:27:00,mfh,60.18
2022-07-26T08:28:00,mfh,59.37
2022-07-26T08:29:00,mfh,59.43
2022-07-26T08:30:00,mfh,59.42
2022-07-26T08:31:00,mfh,58.78
2022-07-26T08:32:00,mfh,58.75
2022-07-26T08:33:00,mfh,58.77
2022-07-26T08:34:00,mfh,58.39
2022-07-26T08:35:00,mfh,59.99
2022-07-26T08:36:00,mfh,59.61
2022-07-26T08:37:00,mfh,59.70
2022-07-26T08:38:00,mfh,59.66
2022-07-26T08:39:00,mfh,59.55
2022-07-26T08:40:00,mfh,59.02
2022-07-26T08:41:00,mfh,59.65
2022-07-26T08:42:00,mfh,59.03
2022-07-26T08:43:00,mfh,59.08
2022-07-26T08:44:00,mfh,59.77
2022-07-26T08:45:00,mfh,59.84
2022-07-26T08:46:00,mfh,59.81
2022-07-26T08:47:00,mfh,59.89
2022-07-26T08:48:00,mfh,49.12
2022-07-26T08:49:00,mfh,49.10
2022-07-26T08:50:00,mfh,48.80
2022-07-26T08:51:00,mfh,48.82
2022-07-26T08:52:00,mfh,49.42
2022-07-26T08:53:00,mfh,49.47
2022-07-26T08:54:00,mfh,49.65
2022-07-26T08:55:00,mfh,49.62
2022-07-26T08:56:00,mfh,49.09
2022-07-26T08:57:00,mfh,48.39
2022-07-26T08:58:00,mfh,48.45
2022-07-26T08:59:00,mfh,48.84
2022-07-26T09:00:00,mfh,49.00
2022-07-26T09:01:00,mfh,49.07
2022-07-26T09:02:00,mfh,49.00
2022-07-26T09:03:00,mfh,49.40
2022-07-26T09:04:00,mfh,49.09
2022-07-26T09:05:00,mfh,49.10
2022-07-26T09:06:00,mfh,49.12
2022-07-26T09:07:00,mfh,48.86
2022-07-26T09:08:00,mfh,49.04
2022-07-26T09:09:00,mfh,49.63
2022-07-26T09:10:00,mfh,48.65
2022-07-26T09:11:00,mfh,48.67
2022-07-26T09:12:00,mfh,48.77
2022-07-26T09:13:00,mfh,48.83
2022-07-26T09:14:00,mfh,48.07
2022-07-26T09:15:00,mfh,48.06
2022-07-26T09:16:00,mfh,47.97
2022-07-26T09:17:00,mfh,48.73
2022-07-26T09:18:00,mfh,48.73
2022-07-26T09:19:00,mfh,48.60
2022-07-26T09:20:00,mfh,48.61
2022-07-26T09:21:00,mfh,48.65
2022-07-26T09:22:00,mfh,48.05
2022-07-26T09:23:00,mfh,48.58
2022-07-26T09:24:00,mfh,48.87
2022-07-26T09:25:00,mfh,48.78
2022-07-26T09:26:00,mfh,49.43
2022-07-26T09:27:00,mfh,49.56
2022-07-26T09:28:00,mfh,57.62
2022-07-26T09:29:00,mfh,58.18
2022-07-26T09:30:00,mfh,57.88
2022-07-26T09:31:00,mfh,57.05
2022-07-26T09:32:00,mfh,58.26
2022-07-26T09:33:00,mfh,58.20
2022-07-26T09:34:00,mfh,59.55
2022-07-26T09:35:00,mfh,59.11
2022-07-26T09:36:00,mfh,58.79
2022-07-26T09:37:00,mfh,58.78
2022-07-26T09:38:00,mfh,58.92
2022-07-26T09:39:00,mfh,58.13
2022-07-26T09:40:00,mfh,57.80
2022-07-26T09:41:00,mfh,57.67
2022-07-26T09:42:00,mfh,58.03
2022-07-26T09:43:00,mfh,58.03
2022-07-26T09:44:00,mfh,57.92
2022-07-26T09:45:00,mfh,57.91
2022-07-26T09:46:00,mfh,57.75
2022-07-26T09:47:00,mfh,58.99
2022-07-26T09:48:00,mfh,57.28
2022-07-26T09:49:00,mfh,57.19
2022-07-26T09:50:00,mfh,57.62
2022-07-26T09:51:00,mfh,58.28
2022-07-26T09:52:00,mfh,58.19
2022-07-26T09:53:00,mfh,58.17
2022-07-26T09:54:00,mfh,56.89
2022-07-26T09:55:00,mfh,56.44
2022-07-26T09:56:00,mfh,55.61
2022-07-26T09:57:00,mfh,48.44
2022-07-26T09:58:00,mfh,48.31
2022-07-26T09:59:00,mfh,49.17
2022-07-26T10:00:00,mfh,49.39
2022-07-26T10:01:00,mfh,48.97
2022-07-26T10:02:00,mfh,48.87
2022-07-26T10:03:00,mfh,48.97
2022-07-26T10:04:00,mfh,48.26
2022-07-26T10:05:00,mfh,47.86
2022-07-26T10:06:00,mfh,47.93
2022-07-26T10:07:00,mfh,48.31
2022-07-26T10:08:00,mfh,49.18
2022-07-26T10:09:00,mfh,48.90
2022-07-26T10:10:00,mfh,49.05
2022-07-26T10:11:00,mfh,49.07
2022-07-26T10:12:00,mfh,49.02
2022-07-26T10:13:00,mfh,48.48
2022-07-26T10:14:00,mfh,48.07
2022-07-26T10:15:00,mfh,48.02
2022-07-26T10:16:00,mfh,48.60
2022-07-26T10:17:00,mfh,48.62
2022-07-26T10:18:00,mfh,48.64
2022-07-26T10:19:00,mfh,49.63
2022-07-26T10:20:00,mfh,50.19
2022-07-26T10:21:00,mfh,49.00
2022-07-26T10:22:00,mfh,49.47
2022-07-26T10:23:00,mfh,48.64
2022-07-26T10:24:00,mfh,48.59
2022-07-26T10:25:00,mfh,49.20
2022-07-26T10:26:00,mfh,49.26
2022-07-26T10:27:00,mfh,49.28
2022-07-26T10:28:00,mfh,49.24
2022-07-26T10:29:00,mfh,48.52
2022-07-26T10:30:00,mfh,48.59
2022-07-26T10:31:00,mfh,48.53
2022-07-26T10:32:00,mfh,48.52
2022-07-26T10:33:00,mfh,49.27
2022-07-26T10:34:00,mfh,49.56
2022-07-26T10:35:00,mfh,48.74
2022-07-26T10:36:00,mfh,48.29
2022-07-26T10:37:00,mfh,48.40
2022-07-26T10:38:00,mfh,47.85
2022-07-26T10:39:00,mfh,47.81
2022-07-26T10:40:00,mfh,47.89
2022-07-26T10:41:00,mfh,48.59
2022-07-26T10:42:00,mfh,48.48
2022-07-26T10:43:00,mfh,48.55
2022-07-26T10:44:00,mfh,48.47
2022-07-26T10:45:00,mfh,48.32
2022-07-26T10:46:00,mfh,47.59
2022-07-26T10:47:00,mfh,47.40
2022-07-26T10:48:00,mfh,47.31
2022-07-26T10:49:00,mfh,47.27
2022-07-26T10:50:00,mfh,48.05
2022-07-26T10:51:00,mfh,48.12
2022-07-26T10:52:00,mfh,48.43
2022-07-26T10:53:00,mfh,48.33
2022-07-26T10:54:00,mfh,48.19
2022-07-26T10:55:00,mfh,48.10
2022-07-26T10:56:00,mfh,47.72
2022-07-26T10:57:00,mfh,48.84
2022-07-26T10:58:00,mfh,50.99
2022-07-26T10:59:00,mfh,51.08
2022-07-26T11:00:00,mfh,49.78
2022-07-26T11:01:00,mfh,49.74
2022-07-26T11:02:00,mfh,49.93
2022-07-26T11:03:00,mfh,50.27
2022-07-26T11:04:00,mfh,50.43
2022-07-26T11:05:00,mfh,50.59
2022-07-26T11:06:00,mfh,50.62
2022-07-26T11:07:00,mfh,50.46
2022-07-26T11:08:00,mfh,50.91
2022-07-26T11:09:00,mfh,50.11
2022-07-26T11:10:00,mfh,49.89
2022-07-26T11:11:00,mfh,50.57
2022-07-26T11:12:00,mfh,50.77
2022-07-26T11:13:00,mfh,50.22
2022-07-26T11:14:00,mfh,49.94
2022-07-26T11:15:00,mfh,49.88
2022-07-26T11:16:00,mfh,49.54
2022-07-26T11:17:00,mfh,49.55
2022-07-26T11:18:00,mfh,49.33
2022-07-26T11:19:00,mfh,50.38
2022-07-26T11:20:00,mfh,50.13
2022-07-26T11:21:00,mfh,50.98
2022-07-26T11:22:00,mfh,50.55
2022-07-26T11:23:00,mfh,50.19
2022-07-26T11:24:00,mfh,50.14
2022-07-26T11:25:00,mfh,49.12
2022-07-26T11:26:00,mfh,49.09
2022-07-26T11:27:00,mfh,49.04
2022-07-26T11:28:00,mfh,50.11
2022-07-26T11:29:00,mfh,51.41
2022-07-26T11:30:00,mfh,50.37
2022-07-26T11:31:00,mfh,52.51
2022-07-26T11:32:00,mfh,51.37
2022-07-26T11:33:00,mfh,49.84
2022-07-26T11:34:00,mfh,48.90
2022-07-26T11:35:00,mfh,48.84
2022-07-26T11:36:00,mfh,48.77
2022-07-26T11:37:00,mfh,49.42
2022-07-26T11:38:00,mfh,49.73
2022-07-26T11:39:00,mfh,50.46
2022-07-26T11:40:00,mfh,49.86
2022-07-26T11:41:00,mfh,50.46
2022-07-26T11:42:00,mfh,49.56
2022-07-26T11:43:00,mfh,49.72
2022-07-26T11:44:00,mfh,49.98
2022-07-26T11:45:00,mfh,50.56
2022-07-26T11:46:00,mfh,51.27
2022-07-26T11:47:00,mfh,57.89
2022-07-26T11:48:00,mfh,72.82
2022-07-26T11:49:00,mfh,73.76
2022-07-26T11:50:00,mfh,72.80
2022-07-26T11:51:00,mfh,72.26
2022-07-26T11:52:00,mfh,71.66
2022-07-26T11:53:00,mfh,71.49
2022-07-26T11:54:00,mfh,72.01
2022-07-26T11:55:00,mfh,71.57
2022-07-26T11:56:00,mfh,71.49
2022-07-26T11:57:00,mfh,63.67
2022-07-26T11:58:00,mfh,63.72
2022-07-26T11:59:00,mfh,62.91
2022-07-26T12:00:00,mfh,62.46
2022-07-26T12:01:00,mfh,62.41
2022-07-26T12:02:00,mfh,62.94
2022-07-26T12:03:00,mfh,57.34
2022-07-26T12:04:00,mfh,56.90
2022-07-26T12:05:00,mfh,57.09
2022-07-26T12:06:00,mfh,49.53
2022-07-26T12:07:00,mfh,49.55
2022-07-26T12:08:00,mfh,48.81
2022-07-26T12:09:00,mfh,48.48
2022-07-26T12:10:00,mfh,48.45
2022-07-26T12:11:00,mfh,49.05
2022-07-26T12:12:00,mfh,49.11
2022-07-26T12:13:00,mfh,49.14
2022-07-26T12:14:00,mfh,49.66
2022-07-26T12:15:00,mfh,49.43
2022-07-26T12:16:00,mfh,49.82
2022-07-26T12:17:00,mfh,49.74
2022-07-26T12:18:00,mfh,50.39
2022-07-26T12:19:00,mfh,49.64
2022-07-26T12:20:00,mfh,50.28
2022-07-26T12:21:00,mfh,50.31
2022-07-26T12:22:00,mfh,50.56
2022-07-26T12:23:00,mfh,50.63
2022-07-26T12:24:00,mfh,50.72
2022-07-26T12:25:00,mfh,50.62
2022-07-26T12:26:00,mfh,49.93
2022-07-26T12:27:00,mfh,50.04
2022-07-26T12:28:00,mfh,50.39
2022-07-26T12:29:00,mfh,51.81
2022-07-26T12:30:00,mfh,51.16
2022-07-26T12:31:00,mfh,51.30
2022-07-26T12:32:00,mfh,51.12
2022-07-26T12:33:00,mfh,51.14
2022-07-26T12:34:00,mfh,50.30
2022-07-26T12:35:00,mfh,50.69
2022-07-26T12:36:00,mfh,50.50
2022-07-26T12:37:00,mfh,50.94
2022-07-26T12:38:00,mfh,50.69
2022-07-26T12:39:00,mfh,50.88
2022-07-26T12:40:00,mfh,51.27
2022-07-26T12:41:00,mfh,50.80
2022-07-26T12:42:00,mfh,50.09
2022-07-26T12:43:00,mfh,50.25
2022-07-26T12:44:00,mfh,50.27
2022-07-26T12:45:00,mfh,50.26
2022-07-26T12:46:00,mfh,50.75
2022-07-26T12:47:00,mfh,50.95
2022-07-26T12:48:00,mfh,50.96
2022-07-26T12:49:00,mfh,50.91
2022-07-26T12:50:00,mfh,50.88
2022-07-26T12:51:00,mfh,49.76
2022-07-26T12:52:00,mfh,49.75
2022-07-26T12:53:00,mfh,49.75
2022-07-26T12:54:00,mfh,50.54
2022-07-26T12:55:00,mfh,50.62
2022-07-26T12:56:00,mfh,50.66
2022-07-26T12:57:00,mfh,51.45
2022-07-26T12:58:00,mfh,50.33
2022-07-26T12:59:00,mfh,50.41
2022-07-26T13:00:00,mfh,50.12
2022-07-26T13:01:00,mfh,49.77
2022-07-26T13:02:00,mfh,49.86
2022-07-26T13:03:00,mfh,50.74
2022-07-26T13:04:00,mfh,50.81
2022-07-26T13:05:00,mfh,50.88
2022-07-26T13:06:00,mfh,50.99
2022-07-26T13:07:00,mfh,50.93
2022-07-26T13:08:00,mfh,51.59
2022-07-26T13:09:00,mfh,51.94
2022-07-26T13:10:00,mfh,51.99
2022-07-26T13:11:00,mfh,50.53
2022-07-26T13:12:00,mfh,51.79
2022-07-26T13:13:00,mfh,52.14
2022-07-26T13:14:00,mfh,52.37
2022-07-26T13:15:00,mfh,52.48
2022-07-26T13:16:00,mfh,51.14
2022-07-26T13:17:00,mfh,50.40
2022-07-26T13:18:00,mfh,50.31